Location: Etz
(53.6379°N, 9.7611°E)
Time: 00:39:54
(UTC+00:00)

Daily predictions for brighter satellites

Satellite Brightness Start Highest point End
(mag) Time Altitude Azimuth Time Altitude Azimuth Time Altitude Azimuth
SL-16 R/B 3.0 00:12:20 56° ENE 00:12:20 56° ENE 00:18:11 10° NNW
Cosmos 1943 Rocket 3.2 00:17:17 41° NNW 00:17:17 41° NNW 00:21:37 10° NNE
COSMOS 2455 4.1 00:18:59 32° NW 00:19:57 34° NNW 00:25:25 10° NE
CZ-2D R/B 3.6 00:16:54 10° NNE 00:20:45 30° ENE 00:20:45 30° ENE
ATLAS 5 CENTAUR R/B 4.1 00:26:24 16° ENE 00:26:24 16° ENE 00:27:37 10° ENE
Cosmos 2297 Rocket 2.9 00:23:41 10° NNW 00:28:49 52° NNE 00:28:49 52° NNE
Resurs 1-4 Rocket 3.2 00:30:50 10° NNE 00:34:54 38° ENE 00:34:54 38° ENE
NOSS 3-1 (A) 4.3 00:32:18 10° NW 00:37:40 53° WNW 00:37:40 53° WNW
Cosmos 2369 Rocket 3.1 00:41:05 43° NNW 00:41:05 43° NNW 00:45:50 10° NNE
Nadezhda 1 Rocket 4.1 00:42:42 68° N 00:42:42 68° N 00:47:58 10° N
Gbstr 26 Del rocket 4.4 00:44:54 76° SSE 00:44:54 76° SSE 00:52:31 10° E
CZ-4C R/B 3.4 00:47:10 35° NW 00:48:35 40° NNW 00:55:00 10° NE
USA 267 4.5 00:49:53 10° ENE 00:54:57 27° SE 00:54:57 27° SE
ATLAS 2AS CENTAUR R/B 4.1 00:50:50 10° WNW 00:58:12 40° N 01:05:10 10° ENE
Cosmos 2263 Rocket 4.4 00:54:37 10° NNW 00:59:02 23° NNE 01:03:28 10° E
IRAS Rocket 4.5 01:04:30 65° NNW 01:04:30 65° NNW 01:09:17 10° NNW
Cosmos 2221 4.1 01:06:06 33° NNE 01:06:06 33° NNE 01:08:32 10° NNE
SL-8 Rocket 3.9 01:05:59 10° N 01:12:13 87° NNW 01:12:13 87° NNW
Sich 1 4.4 01:16:15 10° N 01:18:55 36° N 01:18:55 36° N
Meteor 2-2 Rocket 4.2 01:23:00 83° N 01:23:00 83° N 01:28:37 10° NNE
Cosmos 2218 Rocket 3.9 01:17:13 10° NNW 01:23:40 87° W 01:24:05 79° S
Cosmos 292 Rocket 4.4 01:26:39 50° N 01:26:39 50° N 01:30:21 10° NNE
Cosmos 2366 rocket 3.8 01:19:50 10° NNW 01:26:09 87° W 01:26:34 79° S
Cosmos 2227 Rocket 2.5 01:20:43 10° NNW 01:25:13 58° NW 01:25:13 58° NW
Cosmos 1992 Rocket 4.4 01:30:28 54° ESE 01:30:28 54° ESE 01:35:33 10° NNE
Cosmos 1656 4.4 01:30:38 41° ESE 01:31:05 42° ESE 01:36:16 10° NE
Lacrosse 5 3.8 01:32:48 18° ESE 01:32:48 18° ESE 01:36:02 10° E
USA 234 3.1 01:27:03 10° ESE 01:33:36 81° SSW 01:37:44 25° WNW
ADEOS II 2.5 01:32:38 10° NNE 01:37:50 56° E 01:38:28 52° SE
Cosmos 2219 4.2 01:34:29 10° NW 01:37:44 34° NW 01:37:44 34° NW
CZ-4B R/B 3.7 01:35:25 10° NNE 01:40:26 61° ESE 01:40:47 59° SE
Cosmos 864 Rocket 4.3 01:37:07 10° NNW 01:43:15 71° W 01:43:29 70° WSW
Cosmos 1302 Rocket 4.2 01:44:28 59° NW 01:44:28 59° NW 01:49:23 10° NNE
NOSS 2-2 (C) 4.3 01:41:23 10° NW 01:46:29 81° NE 01:53:35 10° SE
SL-08 R/B 4.5 01:40:56 10° N 01:47:23 88° E 01:49:27 47° SSE
SL-08 R/B 3.5 01:47:13 62° ESE 01:47:42 67° ENE 01:52:20 10° N
Cosmos 2181 Rocket 3.8 01:47:57 68° SW 01:48:36 75° WNW 01:54:49 10° N
NOSS 2-1 (D) 4.5 01:49:44 37° NNE 01:49:44 37° NNE 01:52:27 10° NE
Cosmos 1633 Rocket 3.4 01:45:02 10° N 01:48:58 64° NE 01:48:58 64° NE
IDEFIX/ARIANE 42P 4.1 01:45:57 10° NNE 01:50:39 31° E 01:53:40 18° SE
Cosmos 1666 Rocket 3.9 01:50:04 10° NNW 01:53:48 60° N 01:53:48 60° N
Cosmos 1959 Rocket 4.5 01:49:11 10° NNW 01:55:10 57° W 01:55:10 57° W
Cosmos 1241 Rocket 4.4 01:54:48 63° SW 01:55:57 87° SE 02:02:27 10° NE
SL-16 R/B 3.4 01:57:26 31° WNW 01:57:26 31° WNW 02:01:40 10° NNW
Cosmos 1606 3.5 01:59:13 50° NE 01:59:13 50° NE 02:02:13 10° NNE
ATLAS CENTAUR R/B 4.2 01:42:16 11° W 01:59:51 73° N 02:06:08 10° ENE
ARIANE 5 R/B 3.4 01:54:57 10° NNE 01:59:52 44° E 02:01:51 30° SSE
IRS-1D 3.5 01:55:36 10° NNE 02:01:00 89° ESE 02:01:47 67° SSW
Cosmos 1151 Rocket 3.8 02:00:39 42° ESE 02:01:20 47° E 02:05:31 10° NNE
Cosmos 1943 Rocket 4.3 01:58:47 13° NW 02:01:27 18° NNW 02:05:09 10° NNE
CZ-2D R/B 2.4 01:56:48 10° N 02:01:58 50° WNW 02:02:04 50° WNW
AQUA 3.9 01:57:39 10° N 02:02:08 61° NW 02:02:08 61° NW
ATLAS 5 CENTAUR R/B 1.7 02:07:56 65° NW 02:07:59 65° NW 02:12:53 10° NE
NPP 3.8 02:02:49 10° N 02:08:05 53° WNW 02:08:28 52° W
Genesis I 3.7 02:12:59 54° N 02:12:59 54° N 02:16:20 10° NE
Cosmos 2297 Rocket 3.6 02:08:01 10° NW 02:10:32 24° WNW 02:10:32 24° WNW
CBERS-1 3.9 02:08:04 10° NNE 02:13:13 79° WNW 02:13:59 64° SW
Resurs 1-4 Rocket 2.7 02:10:47 10° N 02:15:40 40° WNW 02:15:58 39° WNW
Cosmos 2082 3.6 02:12:01 10° NW 02:17:40 64° WSW 02:20:24 31° S
Cosmos 1933 3.4 02:18:15 69° SE 02:18:33 73° E 02:22:39 10° NNE
USA 305 4.3 02:22:42 26° SSE 02:22:57 26° SE 02:26:29 10° E
Cosmos 2369 Rocket 4.3 02:22:52 12° WNW 02:25:55 18° NNW 02:29:42 10° NNE
USA 306 4.3 02:26:37 27° SSE 02:26:59 27° SE 02:30:36 10° E
CZ-2D R/B 4.2 02:22:56 10° NNE 02:27:01 51° E 02:28:44 31° SSE
X-37B 3.5 02:29:08 11° SE 02:29:08 11° SE 02:29:20 10° SE
SJ 16-02 2.7 02:23:44 10° NNW 02:27:54 40° ENE 02:32:03 10° SE
Meteor 1-25 Rocket 4.2 02:23:39 10° NNW 02:29:29 73° W 02:33:00 25° S
Cosmos 405 Rocket 4.4 02:28:18 10° NNW 02:30:08 23° NW 02:30:08 23° NW
Gbstr 26 Del rocket 4.4 02:27:26 28° W 02:32:07 74° SSW 02:39:38 10° ESE
ASTEX 1 3.7 02:28:00 10° N 02:33:01 68° E 02:36:22 21° S
IRS-P3 4.0 02:28:09 10° NNE 02:33:33 80° WNW 02:35:28 41° SSW
Cosmos 389 Rocket 4.0 02:32:19 22° SE 02:33:56 33° E 02:37:11 10° NNE
Cosmos 1697 Rocket 2.9 02:32:33 34° S 02:35:02 68° ESE 02:40:38 10° NE
CZ-2C R/B 4.4 02:32:36 10° NE 02:36:57 27° E 02:41:19 10° SSE
H-2A R/B 2.6 02:34:04 10° SSE 02:38:23 62° ENE 02:42:50 10° N
CZ-4C R/B 3.9 02:32:51 10° WNW 02:38:38 38° N 02:45:29 10° ENE
USA 267 3.3 02:32:36 10° ENE 02:39:08 69° SSE 02:42:17 33° SW
Cosmos 1980 Rocket 3.1 02:35:19 18° S 02:39:14 44° ESE 02:44:36 10° NE
NOSS 2-1 (E) 4.3 02:40:33 30° NW 02:41:12 32° NNW 02:45:02 10° NE
ERS-2 3.6 02:38:23 10° SE 02:41:48 38° ENE 02:45:14 10° N
Iridium 2 4.4 02:39:48 23° SSE 02:41:53 50° E 02:45:32 10° NNE
Cosmos 1602 3.5 02:38:39 10° NNW 02:42:30 79° W 02:43:13 56° S
ERS-1 4.4 02:38:06 10° NNE 02:43:15 86° WNW 02:45:42 32° SSW
Cosmos 2263 Rocket 2.5 02:38:20 10° NNW 02:43:59 70° NE 02:49:39 10° SE
Meteor 1-14 Rocket 4.1 02:40:34 10° NNW 02:46:17 88° WSW 02:51:51 10° S
SL-8 R/B 4.1 02:46:01 40° SSW 02:46:18 40° SSW 02:50:45 10° SE
Helios 1B 4.5 02:43:40 10° SSE 02:48:00 88° WSW 02:52:22 10° NNW
Cosmos 1818 3.8 02:46:11 37° W 02:48:10 58° NW 02:53:36 10° NE
ATLAS 2AS CENTAUR R/B 3.6 02:43:02 10° NW 02:50:40 56° NNE 02:57:45 10° ESE
Cosmos 1821 Rocket 4.2 02:46:37 10° NNW 02:52:42 51° W 02:56:29 23° SSW
USA 307 3.9 02:52:25 30° S 02:53:39 37° SSE 02:57:35 10° E
Cosmos 1470 Rocket 3.7 02:49:56 10° NNW 02:54:14 51° W 02:55:26 39° SW
Cosmos 2227 4.2 02:49:16 10° NNW 02:54:59 85° ENE 03:00:38 10° SSE
Spot 4 Rocket 4.0 02:50:58 10° NNE 02:56:10 86° ESE 02:59:44 20° SSW
USA 308 3.8 02:55:23 30° S 02:56:44 38° SSE 03:00:41 10° E
Cosmos 1812 4.5 02:53:45 10° SSE 02:57:12 32° E 03:00:40 10° NNE
Cosmos 1500 3.5 02:55:26 10° N 02:59:17 68° ENE 03:03:06 10° SSE
Cosmos 1666 4.2 03:01:28 10° N 03:05:07 39° ENE 03:08:43 10° SE
Meteor 1-5 Rocket 4.2 03:00:24 10° NNW 03:05:44 78° ENE 03:11:06 10° SSE
Landsat 5 3.5 03:01:57 10° S 03:06:29 76° WSW 03:10:58 10° NNW
Cosmos 1934 Rocket 3.9 03:01:51 10° NNW 03:07:50 62° W 03:13:47 10° S
Cosmos 2227 Rocket 4.1 03:05:59 10° WNW 03:06:57 13° WNW 03:06:57 13° WNW
Cosmos 1238 Rocket 4.0 03:03:26 10° NNW 03:10:03 68° W 03:16:18 10° S
Cosmos 1782 2.7 03:10:11 28° SSW 03:12:12 68° WNW 03:16:15 10° N
Cosmos 1898 Rocket 3.9 03:07:29 10° NNW 03:12:44 68° ENE 03:17:59 10° SE
Cosmos 1656 4.1 03:12:05 26° WSW 03:14:44 45° NW 03:20:05 10° NNE
Lacrosse 5 2.1 03:12:00 26° SW 03:14:49 63° SSE 03:19:50 10° ENE
CZ-2C R/B 2.6 03:12:12 10° NNE 03:15:58 84° WNW 03:18:32 20° SSW
CZ-4B R/B 2.6 03:14:06 10° SE 03:17:07 42° ENE 03:20:14 10° N
ADEOS Rocket 3.3 03:10:22 10° SSE 03:17:08 77° ENE 03:23:12 10° NNW
USA 234 3.8 03:11:20 10° SSE 03:17:13 35° SW 03:23:08 10° WNW
ADEOS II 3.1 03:12:45 10° N 03:17:18 30° WNW 03:19:23 23° W
Cosmos 1515 Rocket 3.6 03:15:08 23° SSW 03:17:46 61° WNW 03:22:12 10° N
IRIDIUM 114 4.4 03:13:53 10° N 03:19:09 81° E 03:24:23 10° S
USA 276 2.9 03:21:38 31° SSW 03:22:31 39° S 03:25:33 10° E
Nadezhda 3 Rocket 4.3 03:18:39 21° SW 03:22:32 46° WNW 03:28:28 10° N
MSX 3.8 03:20:51 10° NNE 03:26:39 75° WNW 03:32:25 10° SSW
Cosmos 1356 3.9 03:23:32 10° NNW 03:26:45 37° W 03:28:27 22° SSW
Cosmos 972 Rocket 4.1 03:24:16 22° SW 03:27:14 54° WNW 03:32:07 10° NNE
IRIDIUM 103 4.3 03:23:02 10° N 03:28:18 87° W 03:33:31 10° S
Cosmos 44 3.7 03:24:49 14° SSW 03:28:30 54° SE 03:33:06 10° NE
IDEFIX/ARIANE 42P 2.8 03:25:22 10° N 03:30:28 51° WNW 03:34:28 16° SW
Cosmos 1605 Rocket 4.0 03:24:16 10° NNW 03:30:37 65° W 03:36:56 10° S
Cosmos 1328 Rocket 4.5 03:28:50 23° WSW 03:30:37 31° WNW 03:34:37 10° N
Meteor 1-11 Rocket 3.9 03:24:58 10° NNW 03:30:52 82° ENE 03:36:36 10° SSE
Cosmos 1933 Rocket 4.2 03:27:36 10° NNW 03:31:30 32° W 03:34:17 16° SW
Cosmos 921 Rocket 3.3 03:28:22 10° S 03:32:29 64° ESE 03:36:40 10° NNE
Cosmos 2278 3.7 03:28:10 15° SW 03:32:56 82° WNW 03:38:42 10° NNE
CZ-3B R/B 2.6 03:32:05 23° WSW 03:34:18 88° NNW 03:45:44 10° ENE
Cosmos 2228 Rocket 3.0 03:31:30 10° SSW 03:35:54 74° WNW 03:40:20 10° N
SAR-Lupe-4 3.9 03:35:13 10° SSE 03:38:47 69° ENE 03:42:23 10° N
ARIANE 5 R/B 3.2 03:34:15 10° N 03:38:54 35° WNW 03:42:10 17° WSW
Cosmos 1151 Rocket 4.2 03:37:31 20° W 03:39:08 25° WNW 03:42:45 10° N
CZ-2D R/B 4.1 03:38:38 10° NNW 03:40:53 13° NW 03:43:08 10° WNW
Cosmos 2369 4.0 03:36:41 17° SW 03:40:58 56° NW 03:46:38 10° NNE
Cosmos 1937 Rocket 3.5 03:36:41 10° NNW 03:41:54 83° ENE 03:47:02 10° SSE
CZ-4C R/B 4.0 03:42:40 12° SSW 03:45:22 27° W 03:48:28 10° NW
ALOS 3.7 03:41:12 10° NNE 03:45:39 41° E 03:50:04 10° SSE
Cosmos 1733 Rocket 3.7 03:41:24 10° N 03:45:45 60° ENE 03:50:02 10° SSE
IRIDIUM 106 4.3 03:41:25 10° N 03:46:37 64° W 03:51:45 10° S
Meteor 1-27 Rocket 4.4 03:43:33 10° S 03:49:24 63° E 03:55:14 10° NNE
Cosmos 1536 2.9 03:45:27 10° N 03:49:33 83° ENE 03:53:38 10° SSE
Cosmos 1869 Rocket 3.8 03:46:24 10° NNW 03:50:36 46° W 03:54:45 10° SSW
SAR-Lupe-1 4.0 03:47:31 10° SSE 03:51:05 89° ENE 03:54:42 10° NNW
ATLAS 5 CENTAUR R/B 3.2 03:49:28 10° WNW 03:53:28 29° N 03:58:05 10° NE
Resurs 1-4 Rocket 4.3 03:53:39 10° NW 03:54:12 10° NW 03:54:45 10° NW
Cosmos 1484 Rocket 3.9 03:50:42 10° NNE 03:54:33 48° E 03:58:25 10° S
Meteor 1-4 Rocket 2.4 03:54:37 10° SSW 03:58:05 86° WNW 04:01:38 10° NNE
USA 305 3.0 03:58:51 14° WSW 04:02:32 72° SSE 04:06:47 10° ENE
X-37B 2.6 04:01:25 12° SW 04:03:12 17° S 04:05:19 10° SSE
Cosmos 2100 Rocket 4.0 03:58:51 10° NNW 04:05:16 82° W 04:11:38 10° S
Meteor 1-31 Rocket 3.8 04:01:37 10° NNE 04:05:21 49° E 04:09:05 10° S
Cosmos 1689 Rocket 2.4 04:02:35 10° SSE 04:05:31 71° ENE 04:08:31 10° N
SJ 16-02 2.1 04:02:31 10° NW 04:06:24 31° WSW 04:10:16 10° SSW
USA 306 3.0 04:02:46 13° WSW 04:06:36 74° SSE 04:10:51 10° ENE
Cosmos 1802 Rocket 4.1 04:01:25 10° N 04:07:37 83° E 04:13:51 10° SSE
PSLV R/B 3.7 04:03:46 10° N 04:07:54 53° WNW 04:11:59 10° SW
Cosmos 1763 Rocket 3.9 04:03:17 10° SSW 04:08:35 69° ESE 04:13:52 10° NNE
Cosmos 1727 Rocket 4.0 04:02:19 10° SSW 04:08:40 76° WNW 04:15:02 10° N
Cosmos 389 Rocket 3.8 04:06:12 12° WSW 04:08:43 23° WNW 04:11:40 10° N
Cosmos 2360 Rocket 4.0 04:08:15 10° S 04:13:19 34° ESE 04:18:23 10° NE
H-2A R/B 3.4 04:11:31 10° SW 04:14:46 20° W 04:18:05 10° NW
ERS-2 3.3 04:12:29 10° SSW 04:15:28 23° W 04:18:28 10° NW
CZ-2C R/B 2.7 04:10:30 10° N 04:15:28 56° WNW 04:20:31 10° SW
NOSS 3-4 (A) 3.8 04:11:04 10° NW 04:17:53 70° SW 04:25:27 10° SSE
NOSS 3-4 (C) 3.8 04:11:10 10° NW 04:17:59 71° SW 04:25:34 10° SSE
PAYLOAD A 4.2 04:14:30 10° N 04:19:02 45° WNW 04:23:29 10° SW
Cosmos 1697 Rocket 3.6 04:14:25 10° WSW 04:19:28 33° NW 04:24:32 10° NNE
USA 267 3.4 04:15:44 10° ENE 04:22:16 73° NNW 04:28:47 10° W
FENGYUN 3A 3.8 04:17:43 10° NNE 04:23:09 82° ESE 04:28:34 10° SSW
Cosmos 2278 Rocket 4.1 04:18:10 10° NNW 04:23:12 31° NE 04:28:12 10° ESE
Cosmos 1980 Rocket 2.7 04:17:50 10° WSW 04:23:17 46° NW 04:28:45 10° NNE
Cosmos 1844 3.9 04:18:24 10° NNW 04:24:01 76° NE 04:29:35 10° SE
SJ-6F 4.5 04:20:44 10° N 04:24:50 64° WNW 04:28:53 10° SSW
Cosmos 1459 Rocket 4.0 04:20:57 10° NNW 04:27:01 64° W 04:32:59 10° S
Cosmos 2263 Rocket 3.1 04:22:52 10° NW 04:27:28 26° WSW 04:32:05 10° SSW
CZ-4C R/B 3.3 04:21:37 10° NW 04:28:18 66° NE 04:36:14 10° ESE
Cosmos 2322 Rocket 2.6 04:22:49 10° SSW 04:28:27 71° ESE 04:34:10 10° NE
NOSS 3-3 (A) 4.1 04:24:17 10° SW 04:30:15 88° NW 04:37:08 10° NE
NOSS 3-3 (C) 4.1 04:24:27 10° SW 04:30:21 89° NW 04:37:13 10° NE
